Regional Weather Roundup
Issued by NWS

Home | Current Version | Previous Version | Graphics & Text | Print | Product List | Glossary On
Versions: 1 2 3 4 5 6 7 8 9 10 11 12 13 14 15 16 17 18 19 20 21 22 23 24 25 26 27 28 29 30 31 32 33 34 35 36 37 38 39 40 41 42 43 44 45 46 47 48 49 50
000
ASUS43 KLSX 170957
RWRMO

WEATHER SUMMARY FOR MISSOURI
NATIONAL WEATHER SERVICE SPRINGFIELD MO
500 AM CDT TUE OCT 17 2017

NOTE: "FAIR" INDICATES FEW OR NO CLOUDS BELOW 12,000 FEET WITH NO
       SIGNIFICANT WEATHER AND/OR OBSTRUCTIONS TO VISIBILITY.
       CURRENT SKY AND/OR WEATHER CONDITIONS ARE NOT AVAILABLE FOR
       CHILLICOTHE AND FARMINGTON.

MOZ001>031-035>038-043-044-053-054-171100-
...NORTHERN AND WESTERN MISSOURI...

CITY           SKY/WX    TMP DP  RH WIND       PRES   REMARKS
KANSAS CTY INT PTCLDY    49  40  71 S7        30.20S
LEE`S SUMMIT   PTCLDY    50  41  71 S12       30.22F
ST JOSEPH      PTCLDY    48  42  80 SE3       30.19R
CHILLICOTHE      N/A     49  42  77 S6        30.23R

$$
MOZ066>068-077>081-088>096-101>105-171100-
...SOUTHWEST MISSOURI...

CITY           SKY/WX    TMP DP  RH WIND       PRES   REMARKS
SPRINGFIELD    PTCLDY    45  41  86 S7        30.28R
JOPLIN         PTCLDY    45  42  89 S7        30.26F

$$
MOZ032>034-039>042-045>050-055>058-069>072-171100-
...CENTRAL MISSOURI...

CITY           SKY/WX    TMP DP  RH WIND       PRES   REMARKS
COLUMBIA       NOT AVBL
JEFFERSON CITY MOCLDY    43  39  86 SE6       30.28R
ROLLA          CLEAR     46  38  73 S9        30.29S
SEDALIA        PTCLDY    49  43  80 S6        30.27R
WARRENSBURG    CLOUDY    45  41  87 S6        30.24S

$$
MOZ051-052-059>065-171100-
...EAST CENTRAL MISSOURI...

CITY           SKY/WX    TMP DP  RH WIND       PRES   REMARKS
ST LOUIS INTL  MOCLDY    50  39  66 SW7       30.30R

$$
MOZ072>076-082>087-097>100-106>115-171100-
...SOUTH CENTRAL AND SOUTHEAST MISSOURI...

CITY           SKY/WX    TMP DP  RH WIND       PRES   REMARKS
CAPE GIRARDEAU FOG       35  34  96 CALM      30.33R VSB 1/4
POPLAR BLUFF   CLEAR     37  37 100 NW3       30.33R
WEST PLAINS    CLEAR     38  35  89 CALM      30.33R

$$



USA.gov is the U.S. government's official web portal to all federal, state and local government web resources and services.